Time,TemperatureF,DewpointF,PressureIn,WindDirection,WindDirectionDegrees,WindSpeedMPH,WindSpeedGustMPH,Humidity,HourlyPrecipIn,Conditions,Clouds,dailyrainin,SoftwareType,DateUTC
2013-08-24 00:00:00,62.8,52.9,30.15,North,32767,0.0,0.0,70,0.00,,,0.00,Wunderground v.1.13,2013-08-24 04:00:00,
2013-08-24 00:05:00,62.7,52.8,30.15,North,360,0.0,0.0,70,0.00,,,0.00,Wunderground v.1.13,2013-08-24 04:05:00,
2013-08-24 00:10:00,62.7,52.8,30.15,North,360,0.0,0.0,70,0.00,,,0.00,Wunderground v.1.13,2013-08-24 04:10:00,
2013-08-24 00:15:00,62.5,52.6,30.15,North,32767,0.0,0.0,70,0.00,,,0.00,Wunderground v.1.13,2013-08-24 04:15:00,
2013-08-24 00:20:00,62.4,52.1,30.15,North,360,0.0,0.0,69,0.00,,,0.00,Wunderground v.1.13,2013-08-24 04:20:00,
2013-08-24 00:25:00,62.3,52.4,30.15,North,32767,0.0,0.0,70,0.00,,,0.00,Wunderground v.1.13,2013-08-24 04:25:00,
2013-08-24 00:30:00,62.2,52.3,30.16,North,32767,0.0,0.0,70,0.00,,,0.00,Wunderground v.1.13,2013-08-24 04:30:00,
2013-08-24 00:35:00,62.0,52.5,30.16,North,32767,0.0,0.0,71,0.00,,,0.00,Wunderground v.1.13,2013-08-24 04:35:00,
2013-08-24 00:40:00,61.9,52.4,30.16,North,360,0.0,0.0,71,0.00,,,0.00,Wunderground v.1.13,2013-08-24 04:40:00,
2013-08-24 00:45:00,61.7,52.2,30.16,North,360,0.0,0.0,71,0.00,,,0.00,Wunderground v.1.13,2013-08-24 04:45:00,
2013-08-24 00:50:00,61.5,52.4,30.16,North,32767,0.0,0.0,72,0.00,,,0.00,Wunderground v.1.13,2013-08-24 04:50:00,
2013-08-24 00:55:00,61.3,52.2,30.16,North,360,0.0,0.0,72,0.00,,,0.00,Wunderground v.1.13,2013-08-24 04:55:00,
2013-08-24 01:05:00,61.0,51.9,30.17,N/A,-737280,0.0,0.0,72,0.00,,,0.00,Wunderground v.1.13,2013-08-24 05:05:00,
2013-08-24 01:15:00,60.7,52.0,30.17,North,360,0.0,0.0,73,0.00,,,0.00,Wunderground v.1.13,2013-08-24 05:15:00,
2013-08-24 01:20:00,60.5,51.8,30.17,North,32767,0.0,0.0,73,0.00,,,0.00,Wunderground v.1.13,2013-08-24 05:20:00,
2013-08-24 01:25:00,60.4,51.7,30.17,North,360,0.0,0.0,73,0.00,,,0.00,Wunderground v.1.13,2013-08-24 05:25:00,
2013-08-24 01:30:00,60.2,51.9,30.17,North,360,0.0,0.0,74,0.00,,,0.00,Wunderground v.1.13,2013-08-24 05:30:00,
2013-08-24 01:40:00,59.9,51.6,30.18,North,32767,0.0,0.0,74,0.00,,,0.00,Wunderground v.1.13,2013-08-24 05:40:00,
2013-08-24 01:45:00,59.8,51.5,30.17,North,32767,0.0,0.0,74,0.00,,,0.00,Wunderground v.1.13,2013-08-24 05:45:00,
2013-08-24 01:50:00,59.6,51.7,30.17,North,360,0.0,0.0,75,0.00,,,0.00,Wunderground v.1.13,2013-08-24 05:50:00,
2013-08-24 02:00:00,59.3,51.4,30.18,North,32767,0.0,0.0,75,0.00,,,0.00,Wunderground v.1.13,2013-08-24 06:00:00,
2013-08-24 02:05:00,59.2,51.3,30.18,North,32767,0.0,0.0,75,0.00,,,0.00,Wunderground v.1.13,2013-08-24 06:05:00,
2013-08-24 02:10:00,59.1,51.2,30.18,North,32767,0.0,0.0,75,0.00,,,0.00,Wunderground v.1.13,2013-08-24 06:10:00,
2013-08-24 02:15:00,58.9,51.3,30.18,North,32767,0.0,0.0,76,0.00,,,0.00,Wunderground v.1.13,2013-08-24 06:15:00,
2013-08-24 02:25:00,58.6,51.1,30.18,North,360,0.0,0.0,76,0.00,,,0.00,Wunderground v.1.13,2013-08-24 06:25:00,
2013-08-24 02:30:00,58.5,51.0,30.18,North,360,0.0,0.0,76,0.00,,,0.00,Wunderground v.1.13,2013-08-24 06:30:00,
2013-08-24 02:40:00,58.3,51.1,30.18,North,360,0.0,0.0,77,0.00,,,0.00,Wunderground v.1.13,2013-08-24 06:40:00,
2013-08-24 02:45:00,58.2,51.0,30.18,North,32767,0.0,0.0,77,0.00,,,0.00,Wunderground v.1.13,2013-08-24 06:45:00,
2013-08-24 02:50:00,58.1,50.9,30.19,North,32767,0.0,0.0,77,0.00,,,0.00,Wunderground v.1.13,2013-08-24 06:50:00,
2013-08-24 02:55:00,58.0,50.8,30.19,North,32767,0.0,0.0,77,0.00,,,0.00,Wunderground v.1.13,2013-08-24 06:55:00,
2013-08-24 03:05:00,57.8,50.6,30.19,North,360,0.0,0.0,77,0.00,,,0.00,Wunderground v.1.13,2013-08-24 07:05:00,
2013-08-24 03:10:00,57.7,50.9,30.20,North,32767,0.0,0.0,78,0.00,,,0.00,Wunderground v.1.13,2013-08-24 07:10:00,
2013-08-24 03:15:00,57.6,50.8,30.20,North,360,0.0,0.0,78,0.00,,,0.00,Wunderground v.1.13,2013-08-24 07:15:00,
2013-08-24 03:20:00,57.5,50.7,30.20,North,32767,0.0,0.0,78,0.00,,,0.00,Wunderground v.1.13,2013-08-24 07:20:00,
2013-08-24 03:30:00,57.3,50.5,30.20,North,32767,0.0,0.0,78,0.00,,,0.00,Wunderground v.1.13,2013-08-24 07:30:00,
2013-08-24 03:35:00,57.2,50.7,30.20,North,360,0.0,0.0,79,0.00,,,0.00,Wunderground v.1.13,2013-08-24 07:35:00,
2013-08-24 03:40:00,57.1,50.6,30.20,North,360,0.0,0.0,79,0.00,,,0.00,Wunderground v.1.13,2013-08-24 07:40:00,
2013-08-24 03:50:00,56.9,50.5,30.21,North,32767,0.0,0.0,79,0.00,,,0.00,Wunderground v.1.13,2013-08-24 07:50:00,
2013-08-24 03:55:00,56.8,50.4,30.21,North,32767,0.0,0.0,79,0.00,,,0.00,Wunderground v.1.13,2013-08-24 07:55:00,
2013-08-24 04:00:00,56.8,50.4,30.21,North,32767,0.0,0.0,79,0.00,,,0.00,Wunderground v.1.13,2013-08-24 08:00:00,
2013-08-24 04:10:00,56.6,50.5,30.22,North,32767,0.0,0.0,80,0.00,,,0.00,Wunderground v.1.13,2013-08-24 08:10:00,
2013-08-24 04:15:00,56.5,50.4,30.22,North,360,0.0,0.0,80,0.00,,,0.00,Wunderground v.1.13,2013-08-24 08:15:00,
2013-08-24 04:20:00,56.4,50.3,30.22,North,360,0.0,0.0,80,0.00,,,0.00,Wunderground v.1.13,2013-08-24 08:20:00,
2013-08-24 04:30:00,56.2,50.1,30.22,North,360,0.0,0.0,80,0.00,,,0.00,Wunderground v.1.13,2013-08-24 08:30:00,
2013-08-24 04:35:00,56.2,50.1,30.23,North,32767,0.0,0.0,80,0.00,,,0.00,Wunderground v.1.13,2013-08-24 08:35:00,
2013-08-24 04:40:00,56.1,50.0,30.23,North,32767,0.0,0.0,80,0.00,,,0.00,Wunderground v.1.13,2013-08-24 08:40:00,
2013-08-24 04:45:00,56.0,50.3,30.23,North,32767,0.0,0.0,81,0.00,,,0.00,Wunderground v.1.13,2013-08-24 08:45:00,
2013-08-24 04:55:00,55.9,50.2,30.23,North,32767,0.0,0.0,81,0.00,,,0.00,Wunderground v.1.13,2013-08-24 08:55:00,
2013-08-24 05:00:00,55.8,50.1,30.24,North,32767,0.0,0.0,81,0.00,,,0.00,Wunderground v.1.13,2013-08-24 09:00:00,
2013-08-24 05:05:00,55.7,50.0,30.24,North,360,0.0,0.0,81,0.00,,,0.00,Wunderground v.1.13,2013-08-24 09:05:00,
2013-08-24 05:10:00,55.6,49.9,30.24,North,32767,0.0,0.0,81,0.00,,,0.00,Wunderground v.1.13,2013-08-24 09:10:00,
2013-08-24 05:20:00,55.5,49.8,30.24,North,32767,0.0,0.0,81,0.00,,,0.00,Wunderground v.1.13,2013-08-24 09:20:00,
2013-08-24 05:25:00,55.4,49.7,30.24,North,360,0.0,0.0,81,0.00,,,0.00,Wunderground v.1.13,2013-08-24 09:25:00,
2013-08-24 05:30:00,55.3,49.6,30.24,North,360,0.0,0.0,81,0.00,,,0.00,Wunderground v.1.13,2013-08-24 09:30:00,
2013-08-24 05:40:00,55.2,49.5,30.25,North,32767,0.0,0.0,81,0.00,,,0.00,Wunderground v.1.13,2013-08-24 09:40:00,
2013-08-24 05:45:00,55.1,49.7,30.25,North,32767,0.0,0.0,82,0.00,,,0.00,Wunderground v.1.13,2013-08-24 09:45:00,
2013-08-24 05:50:00,55.1,49.7,30.25,North,32767,0.0,0.0,82,0.00,,,0.00,Wunderground v.1.13,2013-08-24 09:50:00,
2013-08-24 06:00:00,55.0,49.6,30.26,North,360,0.0,0.0,82,0.00,,,0.00,Wunderground v.1.13,2013-08-24 10:00:00,
2013-08-24 06:05:00,55.0,49.6,30.26,North,32767,0.0,0.0,82,0.00,,,0.00,Wunderground v.1.13,2013-08-24 10:05:00,
2013-08-24 06:10:00,55.0,49.6,30.27,North,32767,0.0,0.0,82,0.00,,,0.00,Wunderground v.1.13,2013-08-24 10:10:00,
2013-08-24 06:20:00,54.9,49.5,30.27,North,360,0.0,0.0,82,0.00,,,0.00,Wunderground v.1.13,2013-08-24 10:20:00,
2013-08-24 06:25:00,54.8,49.4,30.27,North,32767,0.0,0.0,82,0.00,,,0.00,Wunderground v.1.13,2013-08-24 10:25:00,
2013-08-24 06:30:00,54.8,49.4,30.27,North,32767,0.0,0.0,82,0.00,,,0.00,Wunderground v.1.13,2013-08-24 10:30:00,
2013-08-24 06:35:00,54.8,49.4,30.28,North,360,0.0,0.0,82,0.00,,,0.00,Wunderground v.1.13,2013-08-24 10:35:00,
2013-08-24 06:45:00,54.8,49.4,30.28,North,32767,0.0,0.0,82,0.00,,,0.00,Wunderground v.1.13,2013-08-24 10:45:00,
2013-08-24 06:50:00,54.8,49.4,30.28,North,32767,0.0,0.0,82,0.00,,,0.00,Wunderground v.1.13,2013-08-24 10:50:00,
2013-08-24 06:55:00,54.7,49.3,30.28,North,32767,0.0,0.0,82,0.00,,,0.00,Wunderground v.1.13,2013-08-24 10:55:00,
2013-08-24 07:00:00,54.8,49.7,30.28,North,32767,0.0,0.0,83,0.00,,,0.00,Wunderground v.1.13,2013-08-24 11:00:00,
2013-08-24 07:10:00,54.8,49.7,30.29,North,32767,0.0,0.0,83,0.00,,,0.00,Wunderground v.1.13,2013-08-24 11:10:00,
2013-08-24 07:15:00,54.8,49.7,30.29,North,360,0.0,0.0,83,0.00,,,0.00,Wunderground v.1.13,2013-08-24 11:15:00,
2013-08-24 07:20:00,54.8,49.7,30.29,North,32767,0.0,0.0,83,0.00,,,0.00,Wunderground v.1.13,2013-08-24 11:20:00,
2013-08-24 07:30:00,54.9,49.8,30.29,North,32767,0.0,0.0,83,0.00,,,0.00,Wunderground v.1.13,2013-08-24 11:30:00,
2013-08-24 07:35:00,55.0,49.9,30.29,North,32767,0.0,0.0,83,0.00,,,0.00,Wunderground v.1.13,2013-08-24 11:35:00,
2013-08-24 07:40:00,55.1,50.4,30.29,North,32767,0.0,0.0,84,0.00,,,0.00,Wunderground v.1.13,2013-08-24 11:40:00,
2013-08-24 07:50:00,55.4,50.3,30.30,North,360,0.0,0.0,83,0.00,,,0.00,Wunderground v.1.13,2013-08-24 11:50:00,
2013-08-24 07:55:00,55.5,50.4,30.30,North,32767,0.0,0.0,83,0.00,,,0.00,Wunderground v.1.13,2013-08-24 11:55:00,
2013-08-24 08:00:00,55.6,50.5,30.30,North,32767,0.0,0.0,83,0.00,,,0.00,Wunderground v.1.13,2013-08-24 12:00:00,
2013-08-24 08:10:00,56.0,50.9,30.30,North,360,0.0,0.0,83,0.00,,,0.00,Wunderground v.1.13,2013-08-24 12:10:00,
2013-08-24 08:15:00,56.2,50.8,30.30,North,32767,0.0,0.0,82,0.00,,,0.00,Wunderground v.1.13,2013-08-24 12:15:00,
2013-08-24 08:20:00,56.4,51.0,30.30,North,32767,0.0,0.0,82,0.00,,,0.00,Wunderground v.1.13,2013-08-24 12:20:00,
2013-08-24 08:25:00,56.6,51.2,30.31,North,360,0.0,0.0,82,0.00,,,0.00,Wunderground v.1.13,2013-08-24 12:25:00,
2013-08-24 08:35:00,57.7,51.9,30.31,North,32767,0.0,0.0,81,0.00,,,0.00,Wunderground v.1.13,2013-08-24 12:35:00,
2013-08-24 08:40:00,58.0,51.9,30.31,North,32767,0.0,0.0,80,0.00,,,0.00,Wunderground v.1.13,2013-08-24 12:40:00,
2013-08-24 08:45:00,58.6,51.8,30.31,North,360,0.0,0.0,78,0.00,,,0.00,Wunderground v.1.13,2013-08-24 12:45:00,
2013-08-24 08:50:00,58.9,52.4,30.31,North,32767,0.0,0.0,79,0.00,,,0.00,Wunderground v.1.13,2013-08-24 12:50:00,
2013-08-24 09:00:00,59.6,52.4,30.31,North,360,0.0,0.0,77,0.00,,,0.00,Wunderground v.1.13,2013-08-24 13:00:00,
2013-08-24 09:05:00,60.3,52.7,30.31,North,360,0.0,0.0,76,0.00,,,0.00,Wunderground v.1.13,2013-08-24 13:05:00,
2013-08-24 09:15:00,61.6,53.6,30.31,North,32767,0.0,0.0,75,0.00,,,0.00,Wunderground v.1.13,2013-08-24 13:15:00,
2013-08-24 09:20:00,62.1,53.7,30.31,North,32767,0.0,0.0,74,0.00,,,0.00,Wunderground v.1.13,2013-08-24 13:20:00,
2013-08-24 09:25:00,62.5,53.7,30.32,North,32767,0.0,0.0,73,0.00,,,0.00,Wunderground v.1.13,2013-08-24 13:25:00,
2013-08-24 09:30:00,63.6,54.0,30.32,North,32767,0.0,0.0,71,0.00,,,0.00,Wunderground v.1.13,2013-08-24 13:30:00,
2013-08-24 09:40:00,64.4,54.8,30.32,North,360,0.0,0.0,71,0.00,,,0.00,Wunderground v.1.13,2013-08-24 13:40:00,
2013-08-24 09:45:00,65.0,55.0,30.32,North,32767,0.0,0.0,70,0.00,,,0.00,Wunderground v.1.13,2013-08-24 13:45:00,
2013-08-24 09:50:00,65.8,54.5,30.32,North,32767,0.0,0.0,67,0.00,,,0.00,Wunderground v.1.13,2013-08-24 13:50:00,
2013-08-24 10:00:00,67.7,55.5,30.32,North,32767,0.0,0.0,65,0.00,,,0.00,Wunderground v.1.13,2013-08-24 14:00:00,
2013-08-24 10:05:00,68.0,53.6,30.32,North,32767,0.0,0.0,60,0.00,,,0.00,Wunderground v.1.13,2013-08-24 14:05:00,
2013-08-24 10:10:00,67.6,53.7,30.32,North,32767,0.0,0.0,61,0.00,,,0.00,Wunderground v.1.13,2013-08-24 14:10:00,
2013-08-24 10:15:00,69.0,54.5,30.32,North,360,0.0,0.0,60,0.00,,,0.00,Wunderground v.1.13,2013-08-24 14:15:00,
2013-08-24 10:25:00,69.0,53.1,30.32,North,32767,0.0,0.0,57,0.00,,,0.00,Wunderground v.1.13,2013-08-24 14:25:00,
2013-08-24 10:30:00,69.2,53.3,30.32,North,32767,0.0,0.0,57,0.00,,,0.00,Wunderground v.1.13,2013-08-24 14:30:00,
2013-08-24 10:35:00,70.4,53.5,30.32,North,360,0.0,0.0,55,0.00,,,0.00,Wunderground v.1.13,2013-08-24 14:35:00,
2013-08-24 10:45:00,71.2,54.7,30.32,North,32767,0.0,0.0,56,0.00,,,0.00,Wunderground v.1.13,2013-08-24 14:45:00,
2013-08-24 10:50:00,71.1,55.1,30.32,North,32767,0.0,0.0,57,0.00,,,0.00,Wunderground v.1.13,2013-08-24 14:50:00,
2013-08-24 10:55:00,71.7,55.2,30.32,North,360,0.0,0.0,56,0.00,,,0.00,Wunderground v.1.13,2013-08-24 14:55:00,
2013-08-24 11:05:00,72.1,55.0,30.32,North,32767,0.0,0.0,55,0.00,,,0.00,Wunderground v.1.13,2013-08-24 15:05:00,
2013-08-24 11:10:00,71.9,54.3,30.32,North,32767,0.0,0.0,54,0.00,,,0.00,Wunderground v.1.13,2013-08-24 15:10:00,
2013-08-24 11:15:00,71.5,54.0,30.32,North,32767,0.0,0.0,54,0.00,,,0.00,Wunderground v.1.13,2013-08-24 15:15:00,
2013-08-24 11:20:00,72.6,54.5,30.32,North,32767,0.0,0.0,53,0.00,,,0.00,Wunderground v.1.13,2013-08-24 15:20:00,
2013-08-24 11:30:00,73.0,54.3,30.32,North,360,0.0,0.0,52,0.00,,,0.00,Wunderground v.1.13,2013-08-24 15:30:00,
2013-08-24 11:35:00,73.3,51.8,30.32,North,360,0.0,0.0,47,0.00,,,0.00,Wunderground v.1.13,2013-08-24 15:35:00,
2013-08-24 11:40:00,74.1,53.7,30.32,North,32767,0.0,0.0,49,0.00,,,0.00,Wunderground v.1.13,2013-08-24 15:40:00,
2013-08-24 11:50:00,74.1,56.4,30.32,North,32767,0.0,0.0,54,0.00,,,0.00,Wunderground v.1.13,2013-08-24 15:50:00,
2013-08-24 11:55:00,74.7,53.1,30.32,North,32767,0.0,0.0,47,0.00,,,0.00,Wunderground v.1.13,2013-08-24 15:55:00,
2013-08-24 12:00:00,74.1,52.0,30.32,North,32767,0.0,0.0,46,0.00,,,0.00,Wunderground v.1.13,2013-08-24 16:00:00,
2013-08-24 12:05:00,74.0,51.9,30.32,North,360,0.0,0.0,46,0.00,,,0.00,Wunderground v.1.13,2013-08-24 16:05:00,
2013-08-24 12:15:00,75.7,55.2,30.32,North,360,0.0,0.0,49,0.00,,,0.00,Wunderground v.1.13,2013-08-24 16:15:00,
2013-08-24 12:20:00,74.8,53.8,30.32,North,32767,0.0,0.0,48,0.00,,,0.00,Wunderground v.1.13,2013-08-24 16:20:00,
2013-08-24 12:30:00,74.8,52.6,30.32,North,32767,0.0,0.0,46,0.00,,,0.00,Wunderground v.1.13,2013-08-24 16:30:00,
2013-08-24 12:35:00,75.1,52.9,30.32,North,32767,0.0,0.0,46,0.00,,,0.00,Wunderground v.1.13,2013-08-24 16:35:00,
2013-08-24 12:40:00,75.2,54.7,30.32,North,32767,0.0,0.0,49,0.00,,,0.00,Wunderground v.1.13,2013-08-24 16:40:00,
2013-08-24 12:45:00,76.4,54.7,30.32,North,360,0.0,0.0,47,0.00,,,0.00,Wunderground v.1.13,2013-08-24 16:45:00,
2013-08-24 12:55:00,75.1,52.9,30.31,North,32767,0.0,0.0,46,0.00,,,0.00,Wunderground v.1.13,2013-08-24 16:55:00,
2013-08-24 13:00:00,76.9,55.7,30.31,North,360,0.0,0.0,48,0.00,,,0.00,Wunderground v.1.13,2013-08-24 17:00:00,
2013-08-24 13:05:00,76.2,52.1,30.31,North,32767,0.0,0.0,43,0.00,,,0.00,Wunderground v.1.13,2013-08-24 17:05:00,
2013-08-24 13:10:00,75.3,52.5,30.31,North,32767,0.0,0.0,45,0.00,,,0.00,Wunderground v.1.13,2013-08-24 17:10:00,
2013-08-24 13:20:00,76.1,53.8,30.31,North,360,0.0,0.0,46,0.00,,,0.00,Wunderground v.1.13,2013-08-24 17:20:00,
2013-08-24 13:25:00,76.7,52.5,30.31,North,360,0.0,0.0,43,0.00,,,0.00,Wunderground v.1.13,2013-08-24 17:25:00,
2013-08-24 13:30:00,76.7,52.5,30.31,North,32767,0.0,0.0,43,0.00,,,0.00,Wunderground v.1.13,2013-08-24 17:30:00,
2013-08-24 13:40:00,75.9,53.0,30.31,North,32767,0.0,0.0,45,0.00,,,0.00,Wunderground v.1.13,2013-08-24 17:40:00,
2013-08-24 13:45:00,76.0,51.2,30.32,North,32767,0.0,0.0,42,0.00,,,0.00,Wunderground v.1.13,2013-08-24 17:45:00,
2013-08-24 13:50:00,76.1,52.6,30.31,North,32767,0.0,0.0,44,0.00,,,0.00,Wunderground v.1.13,2013-08-24 17:50:00,
2013-08-24 14:00:00,76.1,50.0,30.31,North,32767,0.0,0.0,40,0.00,,,0.00,Wunderground v.1.13,2013-08-24 18:00:00,
2013-08-24 14:05:00,77.1,54.7,30.31,North,32767,0.0,0.0,46,0.00,,,0.00,Wunderground v.1.13,2013-08-24 18:05:00,
2013-08-24 14:10:00,77.6,53.3,30.31,North,32767,0.0,0.0,43,0.00,,,0.00,Wunderground v.1.13,2013-08-24 18:10:00,
2013-08-24 14:20:00,76.9,50.1,30.31,North,32767,0.0,0.0,39,0.00,,,0.00,Wunderground v.1.13,2013-08-24 18:20:00,
2013-08-24 14:25:00,77.4,54.4,30.31,North,32767,0.0,0.0,45,0.00,,,0.00,Wunderground v.1.13,2013-08-24 18:25:00,
2013-08-24 14:30:00,76.7,51.2,30.31,North,32767,0.0,0.0,41,0.00,,,0.00,Wunderground v.1.13,2013-08-24 18:30:00,
2013-08-24 14:35:00,76.0,51.9,30.31,North,360,0.0,0.0,43,0.00,,,0.00,Wunderground v.1.13,2013-08-24 18:35:00,
2013-08-24 14:45:00,76.6,51.1,30.31,North,32767,0.0,0.0,41,0.00,,,0.00,Wunderground v.1.13,2013-08-24 18:45:00,
2013-08-24 14:50:00,76.2,50.1,30.31,North,32767,0.0,0.0,40,0.00,,,0.00,Wunderground v.1.13,2013-08-24 18:50:00,
2013-08-24 14:55:00,75.9,51.2,30.31,North,32767,0.0,0.0,42,0.00,,,0.00,Wunderground v.1.13,2013-08-24 18:55:00,
2013-08-24 15:00:00,77.2,50.3,30.31,North,32767,0.0,0.0,39,0.00,,,0.00,Wunderground v.1.13,2013-08-24 19:00:00,
2013-08-24 15:10:00,76.4,51.0,30.31,North,360,0.0,0.0,41,0.00,,,0.00,Wunderground v.1.13,2013-08-24 19:10:00,
2013-08-24 15:15:00,76.9,53.3,30.31,North,32767,0.0,0.0,44,0.00,,,0.00,Wunderground v.1.13,2013-08-24 19:15:00,
2013-08-24 15:25:00,77.4,51.2,30.31,North,32767,0.0,0.0,40,0.00,,,0.00,Wunderground v.1.13,2013-08-24 19:25:00,
2013-08-24 15:30:00,77.5,51.3,30.31,North,360,0.0,0.0,40,0.00,,,0.00,Wunderground v.1.13,2013-08-24 19:30:00,
2013-08-24 15:35:00,77.8,52.2,30.31,North,32767,0.0,0.0,41,0.00,,,0.00,Wunderground v.1.13,2013-08-24 19:35:00,
2013-08-24 15:40:00,78.1,51.1,30.31,North,32767,0.0,0.0,39,0.00,,,0.00,Wunderground v.1.13,2013-08-24 19:40:00,
2013-08-24 15:50:00,76.9,50.1,30.31,North,360,0.0,0.0,39,0.00,,,0.00,Wunderground v.1.13,2013-08-24 19:50:00,
2013-08-24 15:55:00,76.5,53.0,30.31,North,32767,0.0,0.0,44,0.00,,,0.00,Wunderground v.1.13,2013-08-24 19:55:00,
2013-08-24 16:00:00,77.5,52.6,30.30,North,32767,0.0,0.0,42,0.00,,,0.00,Wunderground v.1.13,2013-08-24 20:00:00,
2013-08-24 16:10:00,77.3,53.1,30.31,North,32767,0.0,0.0,43,0.00,,,0.00,Wunderground v.1.13,2013-08-24 20:10:00,
2013-08-24 16:15:00,76.8,51.3,30.31,North,32767,0.0,0.0,41,0.00,,,0.00,Wunderground v.1.13,2013-08-24 20:15:00,
2013-08-24 16:20:00,76.7,53.1,30.30,North,32767,0.0,0.0,44,0.00,,,0.00,Wunderground v.1.13,2013-08-24 20:20:00,
2013-08-24 16:25:00,76.9,52.1,30.30,North,360,0.0,0.0,42,0.00,,,0.00,Wunderground v.1.13,2013-08-24 20:25:00,
2013-08-24 16:35:00,76.0,49.9,30.30,North,32767,0.0,0.0,40,0.00,,,0.00,Wunderground v.1.13,2013-08-24 20:35:00,
2013-08-24 16:40:00,76.4,52.2,30.30,North,32767,0.0,0.0,43,0.00,,,0.00,Wunderground v.1.13,2013-08-24 20:40:00,
2013-08-24 16:45:00,76.2,50.8,30.30,North,360,0.0,0.0,41,0.00,,,0.00,Wunderground v.1.13,2013-08-24 20:45:00,
2013-08-24 16:55:00,75.2,51.8,30.30,North,32767,0.0,0.0,44,0.00,,,0.00,Wunderground v.1.13,2013-08-24 20:55:00,
2013-08-24 17:00:00,75.1,51.7,30.30,North,360,0.0,0.0,44,0.00,,,0.00,Wunderground v.1.13,2013-08-24 21:00:00,
2013-08-24 17:05:00,75.8,51.1,30.30,North,32767,0.0,0.0,42,0.00,,,0.00,Wunderground v.1.13,2013-08-24 21:05:00,
2013-08-24 17:15:00,76.0,51.2,30.30,North,32767,0.0,0.0,42,0.00,,,0.00,Wunderground v.1.13,2013-08-24 21:15:00,
2013-08-24 17:20:00,76.1,51.3,30.30,North,360,0.0,0.0,42,0.00,,,0.00,Wunderground v.1.13,2013-08-24 21:20:00,
2013-08-24 17:25:00,75.7,52.2,30.30,North,32767,0.0,0.0,44,0.00,,,0.00,Wunderground v.1.13,2013-08-24 21:25:00,
2013-08-24 17:30:00,75.1,51.1,30.30,North,360,0.0,0.0,43,0.00,,,0.00,Wunderground v.1.13,2013-08-24 21:30:00,
2013-08-24 17:40:00,74.7,51.3,30.30,North,360,0.0,0.0,44,0.00,,,0.00,Wunderground v.1.13,2013-08-24 21:40:00,
2013-08-24 17:45:00,73.6,52.1,30.30,North,32767,0.0,0.0,47,0.00,,,0.00,Wunderground v.1.13,2013-08-24 21:45:00,
2013-08-24 17:50:00,73.9,51.2,30.30,North,32767,0.0,0.0,45,0.00,,,0.00,Wunderground v.1.13,2013-08-24 21:50:00,
2013-08-24 18:00:00,73.6,51.5,30.30,North,32767,0.0,0.0,46,0.00,,,0.00,Wunderground v.1.13,2013-08-24 22:00:00,
2013-08-24 18:05:00,73.5,52.0,30.30,North,32767,0.0,0.0,47,0.00,,,0.00,Wunderground v.1.13,2013-08-24 22:05:00,
2013-08-24 18:10:00,73.4,51.9,30.30,North,360,0.0,0.0,47,0.00,,,0.00,Wunderground v.1.13,2013-08-24 22:10:00,
2013-08-24 18:20:00,73.2,50.6,30.30,North,360,0.0,0.0,45,0.00,,,0.00,Wunderground v.1.13,2013-08-24 22:20:00,
2013-08-24 18:25:00,73.1,53.4,30.30,North,32767,0.0,0.0,50,0.00,,,0.00,Wunderground v.1.13,2013-08-24 22:25:00,
2013-08-24 18:30:00,72.9,54.2,30.30,North,32767,0.0,0.0,52,0.00,,,0.00,Wunderground v.1.13,2013-08-24 22:30:00,
2013-08-24 18:35:00,72.8,55.7,30.30,North,32767,0.0,0.0,55,0.00,,,0.00,Wunderground v.1.13,2013-08-24 22:35:00,
2013-08-24 18:45:00,72.3,56.2,30.30,North,360,0.0,0.0,57,0.00,,,0.00,Wunderground v.1.13,2013-08-24 22:45:00,
2013-08-24 18:50:00,72.2,56.1,30.30,North,360,0.0,0.0,57,0.00,,,0.00,Wunderground v.1.13,2013-08-24 22:50:00,
2013-08-24 18:55:00,72.1,56.5,30.30,North,32767,0.0,0.0,58,0.00,,,0.00,Wunderground v.1.13,2013-08-24 22:55:00,
2013-08-24 19:05:00,71.6,56.5,30.30,North,32767,0.0,0.0,59,0.00,,,0.00,Wunderground v.1.13,2013-08-24 23:05:00,
2013-08-24 19:10:00,71.3,57.2,30.30,North,32767,0.0,0.0,61,0.00,,,0.00,Wunderground v.1.13,2013-08-24 23:10:00,
2013-08-24 19:15:00,71.0,57.3,30.30,North,32767,0.0,0.0,62,0.00,,,0.00,Wunderground v.1.13,2013-08-24 23:15:00,
2013-08-24 19:20:00,70.6,56.9,30.30,North,32767,0.0,0.0,62,0.00,,,0.00,Wunderground v.1.13,2013-08-24 23:20:00,
2013-08-24 19:30:00,69.4,56.3,30.30,North,360,0.0,0.0,63,0.00,,,0.00,Wunderground v.1.13,2013-08-24 23:30:00,
2013-08-24 19:35:00,68.9,55.3,30.31,North,32767,0.0,0.0,62,0.00,,,0.00,Wunderground v.1.13,2013-08-24 23:35:00,
2013-08-24 19:40:00,68.4,55.7,30.31,North,32767,0.0,0.0,64,0.00,,,0.00,Wunderground v.1.13,2013-08-24 23:40:00,
2013-08-24 19:50:00,67.4,55.2,30.31,North,32767,0.0,0.0,65,0.00,,,0.00,Wunderground v.1.13,2013-08-24 23:50:00,
2013-08-24 19:55:00,67.0,54.8,30.32,North,32767,0.0,0.0,65,0.00,,,0.00,Wunderground v.1.13,2013-08-24 23:55:00,
2013-08-24 20:00:00,66.6,55.3,30.32,North,360,0.0,0.0,67,0.00,,,0.00,Wunderground v.1.13,2013-08-25 00:00:00,
2013-08-24 20:10:00,65.9,55.0,30.32,North,360,0.0,0.0,68,0.00,,,0.00,Wunderground v.1.13,2013-08-25 00:10:00,
2013-08-24 20:15:00,65.6,55.2,30.32,North,32767,0.0,0.0,69,0.00,,,0.00,Wunderground v.1.13,2013-08-25 00:15:00,
2013-08-24 20:20:00,65.1,55.1,30.32,North,32767,0.0,0.0,70,0.00,,,0.00,Wunderground v.1.13,2013-08-25 00:20:00,
2013-08-24 20:25:00,64.8,54.8,30.33,North,32767,0.0,0.0,70,0.00,,,0.00,Wunderground v.1.13,2013-08-25 00:25:00,
2013-08-24 20:35:00,64.1,54.1,30.33,North,32767,0.0,0.0,70,0.00,,,0.00,Wunderground v.1.13,2013-08-25 00:35:00,
2013-08-24 20:40:00,63.8,53.4,30.33,North,360,0.0,0.0,69,0.00,,,0.00,Wunderground v.1.13,2013-08-25 00:40:00,
2013-08-24 20:45:00,63.5,53.5,30.33,North,360,0.0,0.0,70,0.00,,,0.00,Wunderground v.1.13,2013-08-25 00:45:00,
2013-08-24 20:55:00,63.1,54.3,30.34,North,32767,0.0,0.0,73,0.00,,,0.00,Wunderground v.1.13,2013-08-25 00:55:00,
2013-08-24 21:00:00,62.9,53.7,30.34,North,32767,0.0,0.0,72,0.00,,,0.00,Wunderground v.1.13,2013-08-25 01:00:00,
2013-08-24 21:05:00,62.7,53.5,30.34,North,32767,0.0,0.0,72,0.00,,,0.00,Wunderground v.1.13,2013-08-25 01:05:00,
2013-08-24 21:10:00,62.4,52.9,30.34,North,32767,0.0,0.0,71,0.00,,,0.00,Wunderground v.1.13,2013-08-25 01:10:00,
2013-08-24 21:20:00,62.1,53.3,30.34,North,360,0.0,0.0,73,0.00,,,0.00,Wunderground v.1.13,2013-08-25 01:20:00,
2013-08-24 21:25:00,61.9,53.9,30.34,North,32767,0.0,0.0,75,0.00,,,0.00,Wunderground v.1.13,2013-08-25 01:25:00,
2013-08-24 21:35:00,61.4,53.4,30.34,North,32767,0.0,0.0,75,0.00,,,0.00,Wunderground v.1.13,2013-08-25 01:35:00,
2013-08-24 21:40:00,61.2,52.8,30.34,North,32767,0.0,0.0,74,0.00,,,0.00,Wunderground v.1.13,2013-08-25 01:40:00,
2013-08-24 21:45:00,61.0,53.0,30.34,North,32767,0.0,0.0,75,0.00,,,0.00,Wunderground v.1.13,2013-08-25 01:45:00,
2013-08-24 21:50:00,60.8,52.8,30.34,North,360,0.0,0.0,75,0.00,,,0.00,Wunderground v.1.13,2013-08-25 01:50:00,
2013-08-24 22:00:00,60.5,52.5,30.35,North,32767,0.0,0.0,75,0.00,,,0.00,Wunderground v.1.13,2013-08-25 02:00:00,
2013-08-24 22:05:00,60.3,52.3,30.34,North,32767,0.0,0.0,75,0.00,,,0.00,Wunderground v.1.13,2013-08-25 02:05:00,
2013-08-24 22:10:00,60.1,51.8,30.35,North,32767,0.0,0.0,74,0.00,,,0.00,Wunderground v.1.13,2013-08-25 02:10:00,
2013-08-24 22:15:00,60.0,52.1,30.35,North,32767,0.0,0.0,75,0.00,,,0.00,Wunderground v.1.13,2013-08-25 02:15:00,
2013-08-24 22:25:00,59.8,51.9,30.35,North,32767,0.0,0.0,75,0.00,,,0.00,Wunderground v.1.13,2013-08-25 02:25:00,
2013-08-24 22:30:00,59.6,52.0,30.35,North,360,0.0,0.0,76,0.00,,,0.00,Wunderground v.1.13,2013-08-25 02:30:00,
2013-08-24 22:35:00,59.6,52.0,30.34,North,360,0.0,0.0,76,0.00,,,0.00,Wunderground v.1.13,2013-08-25 02:35:00,
2013-08-24 22:45:00,59.4,51.8,30.34,North,32767,0.0,0.0,76,0.00,,,0.00,Wunderground v.1.13,2013-08-25 02:45:00,
2013-08-24 22:50:00,59.3,52.1,30.35,North,32767,0.0,0.0,77,0.00,,,0.00,Wunderground v.1.13,2013-08-25 02:50:00,
2013-08-24 22:55:00,59.3,52.4,30.35,North,32767,0.0,0.0,78,0.00,,,0.00,Wunderground v.1.13,2013-08-25 02:55:00,
2013-08-24 23:05:00,59.2,52.7,30.35,North,360,0.0,0.0,79,0.00,,,0.00,Wunderground v.1.13,2013-08-25 03:05:00,
2013-08-24 23:10:00,59.2,52.7,30.35,North,32767,0.0,0.0,79,0.00,,,0.00,Wunderground v.1.13,2013-08-25 03:10:00,
2013-08-24 23:15:00,59.2,53.0,30.35,North,32767,0.0,0.0,80,0.00,,,0.00,Wunderground v.1.13,2013-08-25 03:15:00,
2013-08-24 23:25:00,59.2,53.4,30.35,North,360,0.0,0.0,81,0.00,,,0.00,Wunderground v.1.13,2013-08-25 03:25:00,
2013-08-24 23:30:00,59.1,53.3,30.36,North,32767,0.0,0.0,81,0.00,,,0.00,Wunderground v.1.13,2013-08-25 03:30:00,
2013-08-24 23:35:00,59.1,53.3,30.36,North,32767,0.0,0.0,81,0.00,,,0.00,Wunderground v.1.13,2013-08-25 03:35:00,
2013-08-24 23:40:00,59.1,53.3,30.36,North,360,0.0,0.0,81,0.00,,,0.00,Wunderground v.1.13,2013-08-25 03:40:00,
2013-08-24 23:50:00,59.2,53.7,30.36,North,32767,0.0,0.0,82,0.00,,,0.00,Wunderground v.1.13,2013-08-25 03:50:00,
2013-08-24 23:55:00,59.3,53.8,30.36,North,32767,0.0,0.0,82,0.00,,,0.00,Wunderground v.1.13,2013-08-25 03:55:00,